Regional Weather Roundup
Issued by NWS

Home | Current Version | Previous Version | Text Only | Print | Product List | Glossary Off
Versions: 1 2 3 4 5 6 7 8 9 10 11 12 13 14 15 16 17 18 19 20 21 22 23 24 25 26 27 28 29 30 31 32 33 34 35 36 37 38 39 40 41 42 43 44 45 46 47 48 49 50

000
ASUS43 KLSX 031159
RWRMO

WEATHER SUMMARY FOR MISSOURI
NATIONAL WEATHER SERVICE SPRINGFIELD MO
700 AM CDT MON AUG 03 2015

NOTE: "FAIR" INDICATES FEW OR NO CLOUDS BELOW 12,000 FEET WITH NO
       SIGNIFICANT WEATHER AND/OR OBSTRUCTIONS TO VISIBILITY.
       CURRENT SKY AND/OR WEATHER CONDITIONS ARE NOT AVAILABLE FOR
       CHILLICOTHE AND FARMINGTON.

MOZ001>031-035>038-043-044-053-054-031300-
...NORTHERN AND WESTERN MISSOURI...

CITY           SKY/WX    TMP DP  RH WIND       PRES   REMARKS
KANSAS CTY INT FAIR      69  65  86 S5        29.92R
6HR MIN TEMP:  68; 6HR MAX TEMP:  77;

KANSAS C DTWN  CLEAR     74  67  78 CALM      29.90S
6HR MIN TEMP:  72; 6HR MAX TEMP:  80;

LEE`S SUMMIT   CLEAR     69  66  90 W3        29.92S
6HR MIN TEMP:  69; 6HR MAX TEMP:  79;

ST JOSEPH      CLOUDY    72  67  84 NE9       29.93R
6HR MIN TEMP:  69; 6HR MAX TEMP:  78;

CHILLICOTHE      N/A     72  63  73 N7        29.93R
6HR MIN TEMP:  70; 6HR MAX TEMP:  79; 6HR PCP:  0.01;

KIRKSVILLE     CLEAR     67  61  81 N8        29.91R
6HR MIN TEMP:  66; 6HR MAX TEMP:  76; 6HR PCP: TRACE;


$$
MOZ066>068-077>081-088>096-101>105-031300-
...SOUTHWEST MISSOURI...

CITY           SKY/WX    TMP DP  RH WIND       PRES   REMARKS
SPRINGFIELD    CLEAR     67  63  87 S6        29.95R
6HR MIN TEMP:  67; 6HR MAX TEMP:  74;

JOPLIN         CLEAR     69  66  90 S8        29.94S
6HR MIN TEMP:  67; 6HR MAX TEMP:  72;


$$
MOZ032>034-039>042-045>050-055>058-069>072-031300-
...CENTRAL MISSOURI...

CITY           SKY/WX    TMP DP  RH WIND       PRES   REMARKS
COLUMBIA       MOCLDY    74  67  78 N3        29.91R
6HR MIN TEMP:  70; 6HR MAX TEMP:  77;

JEFFERSON CITY PTCLDY    73  66  78 W3        29.91R
6HR MIN TEMP:  73; 6HR MAX TEMP:  81;

ROLLA          CLEAR     70  65  84 SW8       29.92R
6HR MIN TEMP:  67; 6HR MAX TEMP:  76;

SEDALIA        PTCLDY    75  65  70 SW12      29.89F
6HR MIN TEMP:  71; 6HR MAX TEMP:  78;

WARRENSBURG    PTCLDY    68  64  88 SW6       29.90S
OSAGE BEACH    CLEAR     72  64  78 SW7       29.93R

$$
MOZ051-052-059>065-031300-
...EAST CENTRAL MISSOURI...

CITY           SKY/WX    TMP DP  RH WIND       PRES   REMARKS
ST LOUIS INTL  MOCLDY    78  65  63 CALM      29.90R
6HR MIN TEMP:  76; 6HR MAX TEMP:  84;

SPIRIT OF STL  MOCLDY    75  69  81 N3        29.88R
6HR MIN TEMP:  73; 6HR MAX TEMP:  80;

ST CHARLES     MOCLDY    75  65  70 SW3       29.88R
6HR MIN TEMP:  74; 6HR MAX TEMP:  82;


$$
MOZ072>076-082>087-097>100-106>115-031300-
...SOUTH CENTRAL AND SOUTHEAST MISSOURI...

CITY           SKY/WX    TMP DP  RH WIND       PRES   REMARKS
CAPE GIRARDEAU CLEAR     73  71  93 NW5       29.90R
6HR MIN TEMP:  72; 6HR MAX TEMP:  76;

FARMINGTON     PTCLDY    72  64  78 CALM      29.96R
6HR MIN TEMP:  72; 6HR MAX TEMP:  75;

POPLAR BLUFF   CLEAR     73  70  90 SW3       29.89R
6HR MIN TEMP:  72; 6HR MAX TEMP:  77;

WEST PLAINS    CLEAR     71  66  84 W6        29.97R
6HR MIN TEMP:  69; 6HR MAX TEMP:  74;


$$


USA.gov is the U.S. government's official web portal to all federal, state and local government web resources and services.